Year,Month,Day,Hour,Minute,Value (Times are PST for temperature in C)
2015,07,06,00,00,13.50
2015,07,06,00,01,13.50
2015,07,06,00,02,13.50
2015,07,06,00,03,13.50
2015,07,06,00,04,13.50
2015,07,06,00,05,13.50
2015,07,06,00,06,13.40
2015,07,06,00,07,13.40
2015,07,06,00,08,13.40
2015,07,06,00,09,13.40
2015,07,06,00,10,13.40
2015,07,06,00,11,13.40
2015,07,06,00,12,13.40
2015,07,06,00,13,13.40
2015,07,06,00,14,13.40
2015,07,06,00,15,13.40
2015,07,06,00,16,13.40
2015,07,06,00,17,13.40
2015,07,06,00,18,13.40
2015,07,06,00,19,13.40
2015,07,06,00,20,13.40
2015,07,06,00,21,13.40
2015,07,06,00,22,13.40
2015,07,06,00,23,13.40
2015,07,06,00,24,13.40
2015,07,06,00,25,13.40
2015,07,06,00,26,13.40
2015,07,06,00,27,13.30
2015,07,06,00,28,13.30
2015,07,06,00,29,13.30
2015,07,06,00,30,13.30
2015,07,06,00,31,13.30
2015,07,06,00,32,13.30
2015,07,06,00,33,13.30
2015,07,06,00,34,13.30
2015,07,06,00,35,13.30
2015,07,06,00,36,13.30
2015,07,06,00,37,13.30
2015,07,06,00,38,13.30
2015,07,06,00,39,13.30
2015,07,06,00,40,13.20
2015,07,06,00,41,13.20
2015,07,06,00,42,13.20
2015,07,06,00,43,13.20
2015,07,06,00,44,13.20
2015,07,06,00,45,13.20
2015,07,06,00,46,13.20
2015,07,06,00,47,13.20
2015,07,06,00,48,13.20
2015,07,06,00,49,13.20
2015,07,06,00,50,13.20
2015,07,06,00,51,13.20
2015,07,06,00,52,13.20
2015,07,06,00,53,13.20
2015,07,06,00,54,13.20
2015,07,06,00,55,13.20
2015,07,06,00,56,13.20
2015,07,06,00,57,13.20
2015,07,06,00,58,13.20
2015,07,06,00,59,13.10
2015,07,06,01,00,13.10
2015,07,06,01,01,13.10
2015,07,06,01,02,13.10
2015,07,06,01,03,13.10
2015,07,06,01,04,13.10
2015,07,06,01,05,13.10
2015,07,06,01,06,13.10
2015,07,06,01,07,13.10
2015,07,06,01,08,13.10
2015,07,06,01,09,13.10
2015,07,06,01,10,13.10
2015,07,06,01,11,13.00
2015,07,06,01,12,13.00
2015,07,06,01,13,13.00
2015,07,06,01,14,13.00
2015,07,06,01,15,13.00
2015,07,06,01,16,13.00
2015,07,06,01,17,13.00
2015,07,06,01,18,13.00
2015,07,06,01,19,13.00
2015,07,06,01,20,13.00
2015,07,06,01,21,13.00
2015,07,06,01,22,13.00
2015,07,06,01,23,13.00
2015,07,06,01,24,13.00
2015,07,06,01,25,13.00
2015,07,06,01,26,13.00
2015,07,06,01,27,13.00
2015,07,06,01,28,13.00
2015,07,06,01,29,13.00
2015,07,06,01,30,13.00
2015,07,06,01,31,13.00
2015,07,06,01,32,13.00
2015,07,06,01,33,13.00
2015,07,06,01,34,13.00
2015,07,06,01,35,13.00
2015,07,06,01,36,13.00
2015,07,06,01,37,13.00
2015,07,06,01,38,13.00
2015,07,06,01,39,13.00
2015,07,06,01,40,13.00
2015,07,06,01,41,13.00
2015,07,06,01,42,13.00
2015,07,06,01,43,13.00
2015,07,06,01,44,13.00
2015,07,06,01,45,13.00
2015,07,06,01,46,13.00
2015,07,06,01,47,13.00
2015,07,06,01,48,13.00
2015,07,06,01,49,13.00
2015,07,06,01,50,12.90
2015,07,06,01,51,12.90
2015,07,06,01,52,12.90
2015,07,06,01,53,12.90
2015,07,06,01,54,12.90
2015,07,06,01,55,12.90
2015,07,06,01,56,12.90
2015,07,06,01,57,12.90
2015,07,06,01,58,12.90
2015,07,06,01,59,12.90
2015,07,06,02,00,12.90
2015,07,06,02,01,12.90
2015,07,06,02,02,12.90
2015,07,06,02,03,12.90
2015,07,06,02,04,12.80
2015,07,06,02,05,12.80
2015,07,06,02,06,12.80
2015,07,06,02,07,12.80
2015,07,06,02,08,12.80
2015,07,06,02,09,12.70
2015,07,06,02,10,12.70
2015,07,06,02,11,12.70
2015,07,06,02,12,12.70
2015,07,06,02,13,12.70
2015,07,06,02,14,12.60
2015,07,06,02,15,12.60
2015,07,06,02,16,12.60
2015,07,06,02,17,12.60
2015,07,06,02,18,12.60
2015,07,06,02,19,12.70
2015,07,06,02,20,12.70
2015,07,06,02,21,12.70
2015,07,06,02,22,12.70
2015,07,06,02,23,12.70
2015,07,06,02,24,12.70
2015,07,06,02,25,12.70
2015,07,06,02,26,12.70
2015,07,06,02,27,12.70
2015,07,06,02,28,12.70
2015,07,06,02,29,12.60
2015,07,06,02,30,12.60
2015,07,06,02,31,12.60
2015,07,06,02,32,12.50
2015,07,06,02,33,12.40
2015,07,06,02,34,12.40
2015,07,06,02,35,12.40
2015,07,06,02,36,12.40
2015,07,06,02,37,12.30
2015,07,06,02,38,12.30
2015,07,06,02,39,12.30
2015,07,06,02,40,12.30
2015,07,06,02,41,12.20
2015,07,06,02,42,12.20
2015,07,06,02,43,12.20
2015,07,06,02,44,12.20
2015,07,06,02,45,12.20
2015,07,06,02,46,12.10
2015,07,06,02,47,12.10
2015,07,06,02,48,12.10
2015,07,06,02,49,12.10
2015,07,06,02,50,12.10
2015,07,06,02,51,12.00
2015,07,06,02,52,12.00
2015,07,06,02,53,12.00
2015,07,06,02,54,12.00
2015,07,06,02,55,12.00
2015,07,06,02,56,12.00
2015,07,06,02,57,12.00
2015,07,06,02,58,12.00
2015,07,06,02,59,12.00
2015,07,06,03,00,12.00
2015,07,06,03,01,12.00
2015,07,06,03,02,12.00
2015,07,06,03,03,12.00
2015,07,06,03,04,12.00
2015,07,06,03,05,12.00
2015,07,06,03,06,12.00
2015,07,06,03,07,12.00
2015,07,06,03,08,12.00
2015,07,06,03,09,12.00
2015,07,06,03,10,12.00
2015,07,06,03,11,12.00
2015,07,06,03,12,12.00
2015,07,06,03,13,12.00
2015,07,06,03,14,11.90
2015,07,06,03,15,11.90
2015,07,06,03,16,11.90
2015,07,06,03,17,11.90
2015,07,06,03,18,11.90
2015,07,06,03,19,12.00
2015,07,06,03,20,11.90
2015,07,06,03,21,12.00
2015,07,06,03,22,11.90
2015,07,06,03,23,11.90
2015,07,06,03,24,11.90
2015,07,06,03,25,11.90
2015,07,06,03,26,11.90
2015,07,06,03,27,11.90
2015,07,06,03,28,11.90
2015,07,06,03,29,11.90
2015,07,06,03,30,11.90
2015,07,06,03,31,11.90
2015,07,06,03,32,11.90
2015,07,06,03,33,11.90
2015,07,06,03,34,11.80
2015,07,06,03,35,11.80
2015,07,06,03,36,11.80
2015,07,06,03,37,11.80
2015,07,06,03,38,11.80
2015,07,06,03,39,11.80
2015,07,06,03,40,11.80
2015,07,06,03,41,11.80
2015,07,06,03,42,11.80
2015,07,06,03,43,11.80
2015,07,06,03,44,11.80
2015,07,06,03,45,11.80
2015,07,06,03,46,11.80
2015,07,06,03,47,11.90
2015,07,06,03,48,11.90
2015,07,06,03,49,11.90
2015,07,06,03,50,11.90
2015,07,06,03,51,11.90
2015,07,06,03,52,11.90
2015,07,06,03,53,11.90
2015,07,06,03,54,11.90
2015,07,06,03,55,11.90
2015,07,06,03,56,11.90
2015,07,06,03,57,11.90
2015,07,06,03,58,11.80
2015,07,06,03,59,11.80
2015,07,06,04,00,11.80
2015,07,06,04,01,11.80
2015,07,06,04,02,11.80
2015,07,06,04,03,11.80
2015,07,06,04,04,11.80
2015,07,06,04,05,11.80
2015,07,06,04,06,11.80
2015,07,06,04,07,11.80
2015,07,06,04,08,11.80
2015,07,06,04,09,11.80
2015,07,06,04,10,11.70
2015,07,06,04,11,11.70
2015,07,06,04,12,11.70
2015,07,06,04,13,11.70
2015,07,06,04,14,11.70
2015,07,06,04,15,11.80
2015,07,06,04,16,11.80
2015,07,06,04,17,11.80
2015,07,06,04,18,11.80
2015,07,06,04,19,11.80
2015,07,06,04,20,11.80
2015,07,06,04,21,11.80
2015,07,06,04,22,11.80
2015,07,06,04,23,11.80
2015,07,06,04,24,11.80
2015,07,06,04,25,11.80
2015,07,06,04,26,11.80
2015,07,06,04,27,11.80
2015,07,06,04,28,11.80
2015,07,06,04,29,11.70
2015,07,06,04,30,11.70
2015,07,06,04,31,11.70
2015,07,06,04,32,11.70
2015,07,06,04,33,11.60
2015,07,06,04,34,11.60
2015,07,06,04,35,11.60
2015,07,06,04,36,11.60
2015,07,06,04,37,11.60
2015,07,06,04,38,11.50
2015,07,06,04,39,11.50
2015,07,06,04,40,11.50
2015,07,06,04,41,11.50
2015,07,06,04,42,11.50
2015,07,06,04,43,11.40
2015,07,06,04,44,11.40
2015,07,06,04,45,11.40
2015,07,06,04,46,11.40
2015,07,06,04,47,11.40
2015,07,06,04,48,11.40
2015,07,06,04,49,11.40
2015,07,06,04,50,11.40
2015,07,06,04,51,11.40
2015,07,06,04,52,11.40
2015,07,06,04,53,11.40
2015,07,06,04,54,11.30
2015,07,06,04,55,11.30
2015,07,06,04,56,11.30
2015,07,06,04,57,11.30
2015,07,06,04,58,11.30
2015,07,06,04,59,11.30
2015,07,06,05,00,11.30
2015,07,06,05,01,11.30
2015,07,06,05,02,11.30
2015,07,06,05,03,11.30
2015,07,06,05,04,11.30
2015,07,06,05,05,11.30
2015,07,06,05,06,11.30
2015,07,06,05,07,11.30
2015,07,06,05,08,11.30
2015,07,06,05,09,11.30
2015,07,06,05,10,11.40
2015,07,06,05,11,11.40
2015,07,06,05,12,11.40
2015,07,06,05,13,11.40
2015,07,06,05,14,11.40
2015,07,06,05,15,11.40
2015,07,06,05,16,11.40
2015,07,06,05,17,11.50
2015,07,06,05,18,11.50
2015,07,06,05,19,11.60
2015,07,06,05,20,11.60
2015,07,06,05,21,11.60
2015,07,06,05,22,11.60
2015,07,06,05,23,11.60
2015,07,06,05,24,11.60
2015,07,06,05,25,11.60
2015,07,06,05,26,11.60
2015,07,06,05,27,11.50
2015,07,06,05,28,11.50
2015,07,06,05,29,11.50
2015,07,06,05,30,11.40
2015,07,06,05,31,11.40
2015,07,06,05,32,11.40
2015,07,06,05,33,11.40
2015,07,06,05,34,11.30
2015,07,06,05,35,11.30
2015,07,06,05,36,11.30
2015,07,06,05,37,11.30
2015,07,06,05,38,11.30
2015,07,06,05,39,11.20
2015,07,06,05,40,11.20
2015,07,06,05,41,11.20
2015,07,06,05,42,11.20
2015,07,06,05,43,11.20
2015,07,06,05,44,11.10
2015,07,06,05,45,11.10
2015,07,06,05,46,11.10
2015,07,06,05,47,11.10
2015,07,06,05,48,11.10
2015,07,06,05,49,11.10
2015,07,06,05,50,11.10
2015,07,06,05,51,11.10
2015,07,06,05,52,11.10
2015,07,06,05,53,11.00
2015,07,06,05,54,11.00
2015,07,06,05,55,11.00
2015,07,06,05,56,11.00
2015,07,06,05,57,11.00
2015,07,06,05,58,10.90
2015,07,06,05,59,10.90
2015,07,06,06,00,10.90
2015,07,06,06,01,10.90
2015,07,06,06,02,10.90
2015,07,06,06,03,10.90
2015,07,06,06,04,10.90
2015,07,06,06,05,10.90
2015,07,06,06,06,10.90
2015,07,06,06,07,10.90
2015,07,06,06,08,10.90
2015,07,06,06,09,10.90
2015,07,06,06,10,10.90
2015,07,06,06,11,10.90
2015,07,06,06,12,10.90
2015,07,06,06,13,10.90
2015,07,06,06,14,10.90
2015,07,06,06,15,10.90
2015,07,06,06,16,10.90
2015,07,06,06,17,10.90
2015,07,06,06,18,10.90
2015,07,06,06,19,10.90
2015,07,06,06,20,10.80
2015,07,06,06,21,10.80
2015,07,06,06,22,10.80
2015,07,06,06,23,10.90
2015,07,06,06,24,10.90
2015,07,06,06,25,10.90
2015,07,06,06,26,11.00
2015,07,06,06,27,11.00
2015,07,06,06,28,11.00
2015,07,06,06,29,11.00
2015,07,06,06,30,11.00
2015,07,06,06,31,11.10
2015,07,06,06,32,11.10
2015,07,06,06,33,11.10
2015,07,06,06,34,11.10
2015,07,06,06,35,11.10
2015,07,06,06,36,11.10
2015,07,06,06,37,11.10
2015,07,06,06,38,11.20
2015,07,06,06,39,11.20
2015,07,06,06,40,11.20
2015,07,06,06,41,11.20
2015,07,06,06,42,11.20
2015,07,06,06,43,11.20
2015,07,06,06,44,11.20
2015,07,06,06,45,11.30
2015,07,06,06,46,11.30
2015,07,06,06,47,11.30
2015,07,06,06,48,11.30
2015,07,06,06,49,11.30
2015,07,06,06,50,11.30
2015,07,06,06,51,11.30
2015,07,06,06,52,11.30
2015,07,06,06,53,11.30
2015,07,06,06,54,11.40
2015,07,06,06,55,11.40
2015,07,06,06,56,11.50
2015,07,06,06,57,11.50
2015,07,06,06,58,11.50
2015,07,06,06,59,11.60
2015,07,06,07,00,11.70
2015,07,06,07,01,11.70
2015,07,06,07,02,11.80
2015,07,06,07,03,11.80
2015,07,06,07,04,11.90
2015,07,06,07,05,11.90
2015,07,06,07,06,12.00
2015,07,06,07,07,12.00
2015,07,06,07,08,12.10
2015,07,06,07,09,12.10
2015,07,06,07,10,12.10
2015,07,06,07,11,12.20
2015,07,06,07,12,12.20
2015,07,06,07,13,12.20
2015,07,06,07,14,12.20
2015,07,06,07,15,12.30
2015,07,06,07,16,12.30
2015,07,06,07,17,12.30
2015,07,06,07,18,12.30
2015,07,06,07,19,12.30
2015,07,06,07,20,12.30
2015,07,06,07,21,12.40
2015,07,06,07,22,12.40
2015,07,06,07,23,12.40
2015,07,06,07,24,12.40
2015,07,06,07,25,12.50
2015,07,06,07,26,12.60
2015,07,06,07,27,12.60
2015,07,06,07,28,12.60
2015,07,06,07,29,12.60
2015,07,06,07,30,12.60
2015,07,06,07,31,12.70
2015,07,06,07,32,12.70
2015,07,06,07,33,12.70
2015,07,06,07,34,12.70
2015,07,06,07,35,12.70
2015,07,06,07,36,12.70
2015,07,06,07,37,12.70
2015,07,06,07,38,12.70
2015,07,06,07,39,12.80
2015,07,06,07,40,12.80
2015,07,06,07,41,12.80
2015,07,06,07,42,12.80
2015,07,06,07,43,12.80
2015,07,06,07,44,12.90
2015,07,06,07,45,12.90
2015,07,06,07,46,12.90
2015,07,06,07,47,12.90
2015,07,06,07,48,13.00
2015,07,06,07,49,13.00
2015,07,06,07,50,13.00
2015,07,06,07,51,13.10
2015,07,06,07,52,13.10
2015,07,06,07,53,13.10
2015,07,06,07,54,13.10
2015,07,06,07,55,13.20
2015,07,06,07,56,13.20
2015,07,06,07,57,13.20
2015,07,06,07,58,13.20
2015,07,06,07,59,13.20
2015,07,06,08,00,13.20
2015,07,06,08,01,13.20
2015,07,06,08,02,13.20
2015,07,06,08,03,13.20
2015,07,06,08,04,13.30
2015,07,06,08,05,13.30
2015,07,06,08,06,13.30
2015,07,06,08,07,13.30
2015,07,06,08,08,13.30
2015,07,06,08,09,13.30
2015,07,06,08,10,13.30
2015,07,06,08,11,13.40
2015,07,06,08,12,13.40
2015,07,06,08,13,13.40
2015,07,06,08,14,13.40
2015,07,06,08,15,13.40
2015,07,06,08,16,13.40
2015,07,06,08,17,13.40
2015,07,06,08,18,13.40
2015,07,06,08,19,13.40
2015,07,06,08,20,13.40
2015,07,06,08,21,13.40
2015,07,06,08,22,13.40
2015,07,06,08,23,13.50
2015,07,06,08,24,13.50
2015,07,06,08,25,13.50
2015,07,06,08,26,13.60
2015,07,06,08,27,13.60
2015,07,06,08,28,13.60
2015,07,06,08,29,13.70
2015,07,06,08,30,13.70
2015,07,06,08,31,13.80
2015,07,06,08,32,13.80
2015,07,06,08,33,13.80
2015,07,06,08,34,13.90
2015,07,06,08,35,14.00
2015,07,06,08,36,14.10
2015,07,06,08,37,14.10
2015,07,06,08,38,14.20
2015,07,06,08,39,14.20
2015,07,06,08,40,14.20
2015,07,06,08,41,14.20
2015,07,06,08,42,14.30
2015,07,06,08,43,14.30
2015,07,06,08,44,14.30
2015,07,06,08,45,14.40
2015,07,06,08,46,14.40
2015,07,06,08,47,14.40
2015,07,06,08,48,14.40
2015,07,06,08,49,14.40
2015,07,06,08,50,14.40
2015,07,06,08,51,14.40
2015,07,06,08,52,14.40
2015,07,06,08,53,14.50
2015,07,06,08,54,14.50
2015,07,06,08,55,14.50
2015,07,06,08,56,14.60
2015,07,06,08,57,14.60
2015,07,06,08,58,14.70
2015,07,06,08,59,14.70
2015,07,06,09,00,14.80
2015,07,06,09,01,14.80
2015,07,06,09,02,14.80
2015,07,06,09,03,14.90
2015,07,06,09,04,14.90
2015,07,06,09,05,15.00
2015,07,06,09,06,15.00
2015,07,06,09,07,15.00
2015,07,06,09,08,15.10
2015,07,06,09,09,15.10
2015,07,06,09,10,15.10
2015,07,06,09,11,15.10
2015,07,06,09,12,15.10
2015,07,06,09,13,15.10
2015,07,06,09,14,15.10
2015,07,06,09,15,15.20
2015,07,06,09,16,15.20
2015,07,06,09,17,15.20
2015,07,06,09,18,15.20
2015,07,06,09,19,15.30
2015,07,06,09,20,15.30
2015,07,06,09,21,15.30
2015,07,06,09,22,15.30
2015,07,06,09,23,15.30
2015,07,06,09,24,15.40
2015,07,06,09,25,15.40
2015,07,06,09,26,15.40
2015,07,06,09,27,15.50
2015,07,06,09,28,15.50
2015,07,06,09,29,15.60
2015,07,06,09,30,15.60
2015,07,06,09,31,15.60
2015,07,06,09,32,15.60
2015,07,06,09,33,15.60
2015,07,06,09,34,15.70
2015,07,06,09,35,15.70
2015,07,06,09,36,15.80
2015,07,06,09,37,15.80
2015,07,06,09,38,15.90
2015,07,06,09,39,15.90
2015,07,06,09,40,15.90
2015,07,06,09,41,16.00
2015,07,06,09,42,16.00
2015,07,06,09,43,16.00
2015,07,06,09,44,16.00
2015,07,06,09,45,16.10
2015,07,06,09,46,16.10
2015,07,06,09,47,16.10
2015,07,06,09,48,16.10
2015,07,06,09,49,16.10
2015,07,06,09,50,16.10
2015,07,06,09,51,16.20
2015,07,06,09,52,16.20
2015,07,06,09,53,16.20
2015,07,06,09,54,16.20
2015,07,06,09,55,16.20
2015,07,06,09,56,16.20
2015,07,06,09,57,16.20
2015,07,06,09,58,16.20
2015,07,06,09,59,16.20
2015,07,06,10,00,16.20
2015,07,06,10,01,16.20
2015,07,06,10,02,16.30
2015,07,06,10,03,16.30
2015,07,06,10,04,16.30
2015,07,06,10,05,16.30
2015,07,06,10,06,16.30
2015,07,06,10,07,16.30
2015,07,06,10,08,16.30
2015,07,06,10,09,16.20
2015,07,06,10,10,16.20
2015,07,06,10,11,16.20
2015,07,06,10,12,16.20
2015,07,06,10,13,16.20
2015,07,06,10,14,16.10
2015,07,06,10,15,16.10
2015,07,06,10,16,16.10
2015,07,06,10,17,16.00
2015,07,06,10,18,16.00
2015,07,06,10,19,16.00
2015,07,06,10,20,16.00
2015,07,06,10,21,16.00
2015,07,06,10,22,16.00
2015,07,06,10,23,15.90
2015,07,06,10,24,15.90
2015,07,06,10,25,16.00
2015,07,06,10,26,16.00
2015,07,06,10,27,16.00
2015,07,06,10,28,16.00
2015,07,06,10,29,16.00
2015,07,06,10,30,16.00
2015,07,06,10,31,16.00
2015,07,06,10,32,16.00
2015,07,06,10,33,16.00
2015,07,06,10,34,16.00
2015,07,06,10,35,16.00
2015,07,06,10,36,16.00
2015,07,06,10,37,16.00
2015,07,06,10,38,16.00
2015,07,06,10,39,16.00
2015,07,06,10,40,16.00
2015,07,06,10,41,16.00
2015,07,06,10,42,16.00
2015,07,06,10,43,16.00
2015,07,06,10,44,16.00
2015,07,06,10,45,16.00
2015,07,06,10,46,15.90
2015,07,06,10,47,15.90
2015,07,06,10,48,15.90
2015,07,06,10,49,15.90
2015,07,06,10,50,15.80
2015,07,06,10,51,15.80
2015,07,06,10,52,15.80
2015,07,06,10,53,15.70
2015,07,06,10,54,15.70
2015,07,06,10,55,15.70
2015,07,06,10,56,15.60
2015,07,06,10,57,15.60
2015,07,06,10,58,15.60
2015,07,06,10,59,15.60
2015,07,06,11,00,15.60
2015,07,06,11,01,15.60
2015,07,06,11,02,15.60
2015,07,06,11,03,15.60
2015,07,06,11,04,15.60
2015,07,06,11,05,15.60
2015,07,06,11,06,15.60
2015,07,06,11,07,15.60
2015,07,06,11,08,15.60
2015,07,06,11,09,15.60
2015,07,06,11,10,15.60
2015,07,06,11,11,15.60
2015,07,06,11,12,15.60
2015,07,06,11,13,15.60
2015,07,06,11,14,15.60
2015,07,06,11,15,15.60
2015,07,06,11,16,15.60
2015,07,06,11,17,15.60
2015,07,06,11,18,15.60
2015,07,06,11,19,15.60
2015,07,06,11,20,15.60
2015,07,06,11,21,15.70
2015,07,06,11,22,15.70
2015,07,06,11,23,15.80
2015,07,06,11,24,15.80
2015,07,06,11,25,15.90
2015,07,06,11,26,15.90
2015,07,06,11,27,16.00
2015,07,06,11,28,16.10
2015,07,06,11,29,16.10
2015,07,06,11,30,16.20
2015,07,06,11,31,16.20
2015,07,06,11,32,16.30
2015,07,06,11,33,16.30
2015,07,06,11,34,16.30
2015,07,06,11,35,16.40
2015,07,06,11,36,16.40
2015,07,06,11,37,16.50
2015,07,06,11,38,16.60
2015,07,06,11,39,16.60
2015,07,06,11,40,16.70
2015,07,06,11,41,16.70
2015,07,06,11,42,16.80
2015,07,06,11,43,16.80
2015,07,06,11,44,16.80
2015,07,06,11,45,16.90
2015,07,06,11,46,16.90
2015,07,06,11,47,17.00
2015,07,06,11,48,17.10
2015,07,06,11,49,17.20
2015,07,06,11,50,17.30
2015,07,06,11,51,17.40
2015,07,06,11,52,17.50
2015,07,06,11,53,17.50
2015,07,06,11,54,17.60
2015,07,06,11,55,17.70
2015,07,06,11,56,17.70
2015,07,06,11,57,17.70
2015,07,06,11,58,17.80
2015,07,06,11,59,17.80
2015,07,06,12,00,17.70
2015,07,06,12,01,17.70
2015,07,06,12,02,17.60
2015,07,06,12,03,17.50
2015,07,06,12,04,17.40
2015,07,06,12,05,17.40
2015,07,06,12,06,17.40
2015,07,06,12,07,17.30
2015,07,06,12,08,17.30
2015,07,06,12,09,17.30
2015,07,06,12,10,17.30
2015,07,06,12,11,17.20
2015,07,06,12,12,17.20
2015,07,06,12,13,17.10
2015,07,06,12,14,17.10
2015,07,06,12,15,17.00
2015,07,06,12,16,17.10
2015,07,06,12,17,17.10
2015,07,06,12,18,17.10
2015,07,06,12,19,17.00
2015,07,06,12,20,17.00
2015,07,06,12,21,17.00
2015,07,06,12,22,17.00
2015,07,06,12,23,17.00
2015,07,06,12,24,16.90
2015,07,06,12,25,16.90
2015,07,06,12,26,16.90
2015,07,06,12,27,16.90
2015,07,06,12,28,16.90
2015,07,06,12,29,16.90
2015,07,06,12,30,16.90
2015,07,06,12,31,16.90
2015,07,06,12,32,17.00
2015,07,06,12,33,17.00
2015,07,06,12,34,17.00
2015,07,06,12,35,17.10
2015,07,06,12,36,17.10
2015,07,06,12,37,17.10
2015,07,06,12,38,17.10
2015,07,06,12,39,17.10
2015,07,06,12,40,17.20
2015,07,06,12,41,17.30
2015,07,06,12,42,17.30
2015,07,06,12,43,17.40
2015,07,06,12,44,17.40
2015,07,06,12,45,17.50
2015,07,06,12,46,17.50
2015,07,06,12,47,17.50
2015,07,06,12,48,17.60
2015,07,06,12,49,17.60
2015,07,06,12,50,17.60
2015,07,06,12,51,17.60
2015,07,06,12,52,17.50
2015,07,06,12,53,17.50
2015,07,06,12,54,17.60
2015,07,06,12,55,17.60
2015,07,06,12,56,17.50
2015,07,06,12,57,17.40
2015,07,06,12,58,17.40
2015,07,06,12,59,17.40
2015,07,06,13,00,17.40
2015,07,06,13,01,17.50
2015,07,06,13,02,17.50
2015,07,06,13,03,17.50
2015,07,06,13,04,17.60
2015,07,06,13,05,17.60
2015,07,06,13,06,17.60
2015,07,06,13,07,17.70
2015,07,06,13,08,17.70
2015,07,06,13,09,17.70
2015,07,06,13,10,17.70
2015,07,06,13,11,17.70
2015,07,06,13,12,17.80
2015,07,06,13,13,17.80
2015,07,06,13,14,17.80
2015,07,06,13,15,17.90
2015,07,06,13,16,17.90
2015,07,06,13,17,18.00
2015,07,06,13,18,18.00
2015,07,06,13,19,18.10
2015,07,06,13,20,18.10
2015,07,06,13,21,18.20
2015,07,06,13,22,18.20
2015,07,06,13,23,18.20
2015,07,06,13,24,18.30
2015,07,06,13,25,18.30
2015,07,06,13,26,18.30
2015,07,06,13,27,18.30
2015,07,06,13,28,18.30
2015,07,06,13,29,18.30
2015,07,06,13,30,18.20
2015,07,06,13,31,18.20
2015,07,06,13,32,18.10
2015,07,06,13,33,18.10
2015,07,06,13,34,18.00
2015,07,06,13,35,18.00
2015,07,06,13,36,17.90
2015,07,06,13,37,17.90
2015,07,06,13,38,17.90
2015,07,06,13,39,17.90
2015,07,06,13,40,17.90
2015,07,06,13,41,17.90
2015,07,06,13,42,18.00
2015,07,06,13,43,18.00
2015,07,06,13,44,18.00
2015,07,06,13,45,18.10
2015,07,06,13,46,18.10
2015,07,06,13,47,18.10
2015,07,06,13,48,18.10
2015,07,06,13,49,18.20
2015,07,06,13,50,18.20
2015,07,06,13,51,18.30
2015,07,06,13,52,18.30
2015,07,06,13,53,18.30
2015,07,06,13,54,18.30
2015,07,06,13,55,18.30
2015,07,06,13,56,18.30
2015,07,06,13,57,18.30
2015,07,06,13,58,18.20
2015,07,06,13,59,18.20
2015,07,06,14,00,18.20
2015,07,06,14,01,18.20
2015,07,06,14,02,18.20
2015,07,06,14,03,18.20
2015,07,06,14,04,18.20
2015,07,06,14,05,18.30
2015,07,06,14,06,18.30
2015,07,06,14,07,18.40
2015,07,06,14,08,18.40
2015,07,06,14,09,18.50
2015,07,06,14,10,18.50
2015,07,06,14,11,18.50
2015,07,06,14,12,18.60
2015,07,06,14,13,18.60
2015,07,06,14,14,18.70
2015,07,06,14,15,18.70
2015,07,06,14,16,18.80
2015,07,06,14,17,18.90
2015,07,06,14,18,19.00
2015,07,06,14,19,19.10
2015,07,06,14,20,19.10
2015,07,06,14,21,19.20
2015,07,06,14,22,19.20
2015,07,06,14,23,19.20
2015,07,06,14,24,19.20
2015,07,06,14,25,19.20
2015,07,06,14,26,19.20
2015,07,06,14,27,19.20
2015,07,06,14,28,19.20
2015,07,06,14,29,19.20
2015,07,06,14,30,19.20
2015,07,06,14,31,19.30
2015,07,06,14,32,19.40
2015,07,06,14,33,19.50
2015,07,06,14,34,19.60
2015,07,06,14,35,19.60
2015,07,06,14,36,19.70
2015,07,06,14,37,19.80
2015,07,06,14,38,19.90
2015,07,06,14,39,20.00
2015,07,06,14,40,20.20
2015,07,06,14,41,20.30
2015,07,06,14,42,20.40
2015,07,06,14,43,20.50
2015,07,06,14,44,20.60
2015,07,06,14,45,20.70
2015,07,06,14,46,20.70
2015,07,06,14,47,20.70
2015,07,06,14,48,20.70
2015,07,06,14,49,20.80
2015,07,06,14,50,20.80
2015,07,06,14,51,20.90
2015,07,06,14,52,21.00
2015,07,06,14,53,21.10
2015,07,06,14,54,21.20
2015,07,06,14,55,21.30
2015,07,06,14,56,21.30
2015,07,06,14,57,21.40
2015,07,06,14,58,21.50
2015,07,06,14,59,21.60
2015,07,06,15,00,21.60
2015,07,06,15,01,21.60
2015,07,06,15,02,21.60
2015,07,06,15,03,21.70
2015,07,06,15,04,21.80
2015,07,06,15,05,21.90
2015,07,06,15,06,22.00
2015,07,06,15,07,22.00
2015,07,06,15,08,22.10
2015,07,06,15,09,22.00
2015,07,06,15,10,22.00
2015,07,06,15,11,22.00
2015,07,06,15,12,22.00
2015,07,06,15,13,22.10
2015,07,06,15,14,22.10
2015,07,06,15,15,22.10
2015,07,06,15,16,22.10
2015,07,06,15,17,22.10
2015,07,06,15,18,22.10
2015,07,06,15,19,22.10
2015,07,06,15,20,22.10
2015,07,06,15,21,22.10
2015,07,06,15,22,22.10
2015,07,06,15,23,22.20
2015,07,06,15,24,22.20
2015,07,06,15,25,22.30
2015,07,06,15,26,22.30
2015,07,06,15,27,22.40
2015,07,06,15,28,22.50
2015,07,06,15,29,22.50
2015,07,06,15,30,22.60
2015,07,06,15,31,22.60
2015,07,06,15,32,22.60
2015,07,06,15,33,22.60
2015,07,06,15,34,22.70
2015,07,06,15,35,22.80
2015,07,06,15,36,22.80
2015,07,06,15,37,22.90
2015,07,06,15,38,23.00
2015,07,06,15,39,23.10
2015,07,06,15,40,23.20
2015,07,06,15,41,23.20
2015,07,06,15,42,23.20
2015,07,06,15,43,23.30
2015,07,06,15,44,23.30
2015,07,06,15,45,23.30
2015,07,06,15,46,23.30
2015,07,06,15,47,23.30
2015,07,06,15,48,23.40
2015,07,06,15,49,23.40
2015,07,06,15,50,23.40
2015,07,06,15,51,23.40
2015,07,06,15,52,23.40
2015,07,06,15,53,23.40
2015,07,06,15,54,23.30
2015,07,06,15,55,23.30
2015,07,06,15,56,23.30
2015,07,06,15,57,23.30
2015,07,06,15,58,23.30
2015,07,06,15,59,23.20
2015,07,06,16,00,23.20
2015,07,06,16,01,23.20
2015,07,06,16,02,23.20
2015,07,06,16,03,23.20
2015,07,06,16,04,23.20
2015,07,06,16,05,23.30
2015,07,06,16,06,23.40
2015,07,06,16,07,23.40
2015,07,06,16,08,23.50
2015,07,06,16,09,23.60
2015,07,06,16,10,23.60
2015,07,06,16,11,23.70
2015,07,06,16,12,23.70
2015,07,06,16,13,23.70
2015,07,06,16,14,23.60
2015,07,06,16,15,23.70
2015,07,06,16,16,23.70
2015,07,06,16,17,23.60
2015,07,06,16,18,23.60
2015,07,06,16,19,23.60
2015,07,06,16,20,23.60
2015,07,06,16,21,23.70
2015,07,06,16,22,23.70
2015,07,06,16,23,23.80
2015,07,06,16,24,23.80
2015,07,06,16,25,23.90
2015,07,06,16,26,23.90
2015,07,06,16,27,23.90
2015,07,06,16,28,23.90
2015,07,06,16,29,24.00
2015,07,06,16,30,23.90
2015,07,06,16,31,24.00
2015,07,06,16,32,24.00
2015,07,06,16,33,24.00
2015,07,06,16,34,23.90
2015,07,06,16,35,23.80
2015,07,06,16,36,23.80
2015,07,06,16,37,23.80
2015,07,06,16,38,23.80
2015,07,06,16,39,23.80
2015,07,06,16,40,23.90
2015,07,06,16,41,23.90
2015,07,06,16,42,23.80
2015,07,06,16,43,23.80
2015,07,06,16,44,23.80
2015,07,06,16,45,23.70
2015,07,06,16,46,23.70
2015,07,06,16,47,23.70
2015,07,06,16,48,23.70
2015,07,06,16,49,23.60
2015,07,06,16,50,23.60
2015,07,06,16,51,23.60
2015,07,06,16,52,23.60
2015,07,06,16,53,23.70
2015,07,06,16,54,23.70
2015,07,06,16,55,23.70
2015,07,06,16,56,23.70
2015,07,06,16,57,23.70
2015,07,06,16,58,23.70
2015,07,06,16,59,23.70
2015,07,06,17,00,23.70
2015,07,06,17,01,23.70
2015,07,06,17,02,23.70
2015,07,06,17,03,23.70
2015,07,06,17,04,23.70
2015,07,06,17,05,23.70
2015,07,06,17,06,23.70
2015,07,06,17,07,23.70
2015,07,06,17,08,23.70
2015,07,06,17,09,23.80
2015,07,06,17,10,23.90
2015,07,06,17,11,23.90
2015,07,06,17,12,24.00
2015,07,06,17,13,24.00
2015,07,06,17,14,24.00
2015,07,06,17,15,24.00
2015,07,06,17,16,24.00
2015,07,06,17,17,23.90
2015,07,06,17,18,23.90
2015,07,06,17,19,23.90